THOR ABLESTAR DEB, 48828

Orbit data source: Space-Track

THOR ABLESTAR DEB, 48828 is space debris in LEO originally from a launch on Thu, 29 Jun 1961 UTC launched from the Air Force Eastern Test Range (AFETR). Debris objects in space refer to the collection of defunct objects orbiting the Earth. Examples of debris include non-operational satellites, rocket bodies, and fragments generated from explosions, collisions, or faulty payload assembly.

Loading next visibility...
Identifier
48828, 1961-015NG
Orbit
LEO
Country
Flag of USUS
Related business
Manufacturer
Unknown
Mission
Spacecraft
Bus & Motor
Unknown
Mass
Unknown
Launch date (UTC)
1961-06-29 (65 years ago)
Launch vehicle
Unknown
Launch site
Air Force Eastern Test Range (AFETR)
Object type
Payload
Rocket body
Debris
Shape & HBR
Unknown shape, 0.1 m
Radar Cross Section
Small (<0.1 m²)

Expand to show TLE details & history
Last TLE update: 10 hours ago

TLE from 10 hours ago
0 THOR ABLESTAR DEB
1 48828U 61015NG  26095.30625453  .00000123  00000-0  14909-3 0  9995
2 48828  66.7606 297.8697 0059255 186.0282 351.9544 13.94033473629278
Epoch: 2026-04-05T07:21Z
TLE epoch observation values (Epoch: 2026-04-05T07:21:00.391Z)
Latitude
1.85331°
Longitude
173.21256°
Altitude
873.598 km
Speed
7.438 km/s
True Right ascension
07h 48m 18s
True Declination
1° 50' 33"
Sunlit
Object was in daylight at epoch
Visualization orbit readout
Latitude
Unknown
Longitude
Unknown
Altitude
Unknown
Speed
Unknown
Apparent Right ascension
Unknown
Apparent Declination
Unknown
Sunlit
N/A
Visualization observer readout
Local Sidereal Time
23:13:31
Azimuth
Unknown
Elevation
Unknown
Doppler factor
Unknown
Orbital elements
Apogee altitude
956.128 km
Perigee altitude
869.722 km
Semi-major axis
7,291.062 km
Eccentricity
0.00593
Inclination
66.7606°
RAAN
297.8697°
Arg. of periapsis
186.0282°
True anomaly
351.85866°
Mean anomaly
351.9544°
Eccentric anomaly
351.9066°
Mean motion
3.48624 °/min
Orbital period
103.26 mins
BSTAR
0.00014909
Loading maneuver chart data...
Computing Atmospheric mass density...

Documentation

Showing up to 5 results
|